| time (UTC) | temp F | wind direction | speed MPH | gust MPH | rain 1hr in | rain 24hr in | rain mn in | humidity % | barometer mb |
| 20260902220045 | 63 | 0 | 0.0 | 3.0 | 0.00 | 0.00 | 0.00 | 83 | 1024.7 |
| 20260902214544 | 64 | 0 | 1.0 | 3.0 | 0.00 | 0.00 | 0.00 | 82 | 1024.8 |
| 20260902213054 | 64 | 254 | 1.0 | 4.0 | 0.00 | 0.00 | 0.00 | 82 | 1024.7 |
| 20260902211553 | 64 | 268 | 1.0 | 6.0 | 0.00 | 0.00 | 0.00 | 82 | 1024.7 |
| 20260902210046 | 65 | 259 | 1.0 | 7.0 | 0.00 | 0.00 | 0.00 | 81 | 1024.6 |
| 20260902204545 | 65 | 263 | 2.0 | 6.0 | 0.00 | 0.00 | 0.00 | 80 | 1024.7 |
| 20260902203048 | 66 | 240 | 2.0 | 4.0 | 0.00 | 0.00 | 0.00 | 79 | 1024.6 |
| 20260902201545 | 66 | 228 | 2.0 | 8.0 | 0.00 | 0.00 | 0.00 | 77 | 1024.5 |
| 20260902200046 | 67 | 268 | 1.0 | 6.0 | 0.00 | 0.00 | 0.00 | 75 | 1024.6 |
| 20260902194543 | 68 | 239 | 2.0 | 7.0 | 0.00 | 0.00 | 0.00 | 73 | 1024.4 |
| 20260902193048 | 68 | 215 | 3.0 | 7.0 | 0.00 | 0.00 | 0.00 | 72 | 1024.4 |
| 20260902191544 | 69 | 261 | 3.0 | 7.0 | 0.00 | 0.00 | 0.00 | 71 | 1024.1 |
| 20260902190044 | 69 | 262 | 2.0 | 7.0 | 0.00 | 0.00 | 0.00 | 71 | 1023.9 |
| 20260902184557 | 70 | 236 | 2.0 | 6.0 | 0.00 | 0.00 | 0.00 | 70 | 1023.9 |
| 20260902183048 | 70 | 227 | 3.0 | 7.0 | 0.00 | 0.00 | 0.00 | 69 | 1023.5 |
| 20260902181545 | 71 | 280 | 2.0 | 10.0 | 0.00 | 0.00 | 0.00 | 68 | 1023.6 |
| 20260902180113 | 72 | 281 | 2.0 | 8.0 | 0.00 | 0.00 | 0.00 | 67 | 1023.4 |
| 20260902174548 | 72 | 281 | 3.0 | 10.0 | 0.00 | 0.00 | 0.00 | 66 | 1023.5 |
| 20260902173044 | 73 | 250 | 2.0 | 9.0 | 0.00 | 0.00 | 0.00 | 65 | 1023.5 |
| 20260902171545 | 73 | 239 | 3.0 | 8.0 | 0.00 | 0.00 | 0.00 | 64 | 1023.4 |
| 20260902170050 | 74 | 244 | 2.0 | 9.0 | 0.00 | 0.00 | 0.00 | 62 | 1023.3 |
| 20260902164544 | 74 | 250 | 3.0 | 13.0 | 0.00 | 0.00 | 0.00 | 63 | 1023.1 |
| 20260902163047 | 75 | 273 | 2.0 | 10.0 | 0.00 | 0.00 | 0.00 | 61 | 1023.1 |
| 20260902161552 | 76 | 252 | 3.0 | 9.0 | 0.00 | 0.00 | 0.00 | 61 | 1023.1 |
| 20260902160554 | 76 | 284 | 4.0 | 11.0 | 0.00 | 0.00 | 0.00 | 60 | 1023.2 |
| 20260902154543 | 76 | 254 | 1.0 | 12.0 | 0.00 | 0.00 | 0.00 | 60 | 1023.4 |
| 20260902153050 | 77 | 288 | 2.0 | 9.0 | 0.00 | 0.00 | 0.00 | 56 | 1023.2 |
| 20260902151548 | 78 | 252 | 2.0 | 9.0 | 0.00 | 0.00 | 0.00 | 55 | 1023.4 |
| 20260902150048 | 78 | 0 | 1.0 | 13.0 | 0.00 | 0.00 | 0.00 | 54 | 1023.3 |
| 20260902144542 | 78 | 259 | 2.0 | 8.0 | 0.00 | 0.00 | 0.00 | 54 | 1023.3 |
| 20260902143043 | 78 | 236 | 1.0 | 8.0 | 0.00 | 0.00 | 0.00 | 55 | 1023.2 |
| 20260902141542 | 78 | 269 | 3.0 | 10.0 | 0.00 | 0.00 | 0.00 | 53 | 1023.5 |
| 20260902140047 | 77 | 276 | 2.0 | 9.0 | 0.00 | 0.00 | 0.00 | 55 | 1023.5 |
| 20260902134546 | 77 | 0 | 1.0 | 6.0 | 0.00 | 0.00 | 0.00 | 55 | 1023.5 |
| 20260902133041 | 77 | 0 | 0.0 | 10.0 | 0.00 | 0.00 | 0.00 | 55 | 1023.5 |
| 20260902131542 | 76 | 288 | 1.0 | 8.0 | 0.00 | 0.00 | 0.00 | 58 | 1023.6 |
| 20260902130046 | 76 | 0 | 0.0 | 9.0 | 0.00 | 0.00 | 0.00 | 57 | 1023.8 |
| 20260902124543 | 75 | 0 | 1.0 | 8.0 | 0.00 | 0.00 | 0.00 | 58 | 1023.7 |
| 20260902123049 | 76 | 0 | 1.0 | 7.0 | 0.00 | 0.00 | 0.00 | 58 | 1023.8 |
| 20260902121553 | 75 | 0 | 0.0 | 6.0 | 0.00 | 0.00 | 0.00 | 60 | 1023.9 |
| 20260902120044 | 74 | 0 | 1.0 | 8.0 | 0.00 | 0.00 | 0.00 | 62 | 1023.9 |
| 20260902114544 | 74 | 282 | 1.0 | 7.0 | 0.00 | 0.00 | 0.00 | 63 | 1024.0 |
| 20260902113044 | 73 | 0 | 2.0 | 7.0 | 0.00 | 0.00 | 0.00 | 63 | 1024.1 |
| 20260902111551 | 73 | 0 | 1.0 | 9.0 | 0.00 | 0.00 | 0.00 | 64 | 1024.2 |
| 20260902110048 | 72 | 253 | 0.0 | 7.0 | 0.00 | 0.00 | 0.00 | 66 | 1024.2 |
| 20260902104552 | 72 | 272 | 2.0 | 8.0 | 0.00 | 0.00 | 0.00 | 64 | 1024.2 |
| 20260902103048 | 72 | 0 | 1.0 | 4.0 | 0.00 | 0.00 | 0.00 | 67 | 1024.3 |
| 20260902101543 | 71 | 0 | 2.0 | 7.0 | 0.00 | 0.00 | 0.00 | 69 | 1024.3 |
| 20260902100107 | 71 | 274 | 2.0 | 8.0 | 0.00 | 0.00 | 0.00 | 69 | 1024.2 |
| 20260902094544 | 70 | 0 | 1.0 | 7.0 | 0.00 | 0.00 | 0.00 | 74 | 1024.2 |
| 20260902093048 | 69 | 284 | 1.0 | 6.0 | 0.00 | 0.00 | 0.00 | 75 | 1024.1 |
| 20260902091542 | 69 | 0 | 0.0 | 6.0 | 0.00 | 0.00 | 0.00 | 77 | 1024.0 |
| 20260902090043 | 67 | 287 | 0.0 | 5.0 | 0.00 | 0.00 | 0.00 | 79 | 1023.8 |
| 20260902084549 | 66 | 0 | 1.0 | 7.0 | 0.00 | 0.00 | 0.00 | 81 | 1023.9 |
| 20260902083046 | 64 | 0 | 1.0 | 7.0 | 0.00 | 0.00 | 0.00 | 84 | 1023.7 |
| 20260902081549 | 62 | 286 | 0.0 | 4.0 | 0.00 | 0.00 | 0.00 | 88 | 1023.7 |
| 20260902080042 | 61 | 0 | 0.0 | 3.0 | 0.00 | 0.00 | 0.00 | 92 | 1023.6 |
| 20260902074547 | 60 | 236 | 0.0 | 4.0 | 0.00 | 0.00 | 0.00 | 93 | 1023.3 |
| 20260902073050 | 59 | 228 | 0.0 | 3.0 | 0.00 | 0.00 | 0.00 | 94 | 1023.5 |
| 20260902071620 | 58 | 254 | 0.0 | 3.0 | 0.00 | 0.00 | 0.00 | 94 | 1023.2 |
| 20260902071542 | 58 | 254 | 0.0 | 3.0 | 0.00 | 0.00 | 0.00 | 94 | 1023.2 |
| 20260902070046 | 58 | 0 | 0.0 | 0.0 | 0.00 | 0.00 | 0.00 | 94 | 1023.0 |
| 20260902064557 | 58 | 0 | 0.0 | 0.0 | 0.00 | 0.00 | 0.00 | 94 | 1023.0 |
| 20260902063050 | 57 | 0 | 0.0 | 0.0 | 0.00 | 0.00 | 0.00 | 94 | 1023.0 |
| 20260902061556 | 57 | 0 | 0.0 | 0.0 | 0.00 | 0.00 | 0.00 | 94 | 1022.7 |
| 20260902060042 | 57 | 0 | 0.0 | 0.0 | 0.00 | 0.00 | 0.00 | 93 | 1022.5 |
| 20260902054547 | 57 | 0 | 0.0 | 0.0 | 0.00 | 0.00 | 0.00 | 93 | 1022.7 |
| 20260902053048 | 57 | 0 | 0.0 | 0.0 | 0.00 | 0.00 | 0.00 | 93 | 1022.6 |
| 20260902051544 | 57 | 0 | 0.0 | 0.0 | 0.00 | 0.00 | 0.00 | 93 | 1022.5 |
| 20260902050042 | 57 | 0 | 0.0 | 0.0 | 0.00 | 0.00 | 0.00 | 93 | 1022.4 |
| 20260902044544 | 57 | 0 | 0.0 | 0.0 | 0.00 | 0.00 | 0.00 | 92 | 1022.3 |
| 20260902043052 | 58 | 0 | 0.0 | 1.0 | 0.00 | 0.00 | 0.00 | 92 | 1022.2 |
| 20260902041544 | 58 | 0 | 0.0 | 1.0 | 0.00 | 0.00 | 0.00 | 92 | 1022.3 |
| 20260902040044 | 58 | 0 | 0.0 | 0.0 | 0.00 | 0.00 | 0.00 | 92 | 1022.1 |
| 20260902034543 | 58 | 0 | 0.0 | 0.0 | 0.00 | 0.00 | 0.00 | 92 | 1022.0 |
| 20260902033046 | 58 | 0 | 0.0 | 0.0 | 0.00 | 0.00 | 0.00 | 92 | 1021.9 |
| 20260902031546 | 58 | 0 | 0.0 | 0.0 | 0.00 | 0.00 | 0.00 | 92 | 1021.9 |
| 20260902030043 | 58 | 0 | 0.0 | 0.0 | 0.00 | 0.00 | 0.00 | 91 | 1021.8 |
| 20260902024543 | 59 | 0 | 0.0 | 0.0 | 0.00 | 0.00 | 0.00 | 91 | 1021.9 |
| 20260902023051 | 59 | 0 | 0.0 | 0.0 | 0.00 | 0.00 | 0.00 | 91 | 1022.0 |
| 20260902021544 | 59 | 0 | 0.0 | 0.0 | 0.00 | 0.00 | 0.00 | 90 | 1021.8 |
| 20260902020045 | 59 | 0 | 0.0 | 0.0 | 0.00 | 0.00 | 0.00 | 90 | 1021.9 |
| 20260902014549 | 60 | 0 | 0.0 | 0.0 | 0.00 | 0.00 | 0.00 | 90 | 1022.3 |
| 20260902013044 | 60 | 0 | 0.0 | 0.0 | 0.00 | 0.00 | 0.00 | 89 | 1022.0 |
| 20260902011549 | 60 | 0 | 0.0 | 0.0 | 0.00 | 0.00 | 0.00 | 89 | 1022.3 |
| 20260902010038 | 60 | 0 | 0.0 | 0.0 | 0.00 | 0.00 | 0.00 | 89 | 1022.5 |
| 20260902004549 | 60 | 0 | 0.0 | 0.0 | 0.00 | 0.00 | 0.00 | 89 | 1022.4 |
| 20260902003048 | 60 | 0 | 0.0 | 0.0 | 0.00 | 0.00 | 0.00 | 88 | 1022.6 |
| 20260902001545 | 60 | 0 | 0.0 | 0.0 | 0.00 | 0.00 | 0.00 | 88 | 1022.3 |
| 20260902000048 | 60 | 0 | 0.0 | 2.0 | 0.00 | 0.00 | 0.00 | 88 | 1022.6 |
| 20260901234541 | 61 | 0 | 0.0 | 0.0 | 0.00 | 0.00 | 0.00 | 87 | 1022.7 |
| 20260901233046 | 61 | 0 | 0.0 | 0.0 | 0.00 | 0.00 | 0.00 | 86 | 1022.5 |
| 20260901231545 | 61 | 0 | 0.0 | 0.0 | 0.00 | 0.00 | 0.00 | 85 | 1022.6 |
| 20260901230042 | 62 | 0 | 0.0 | 2.0 | 0.00 | 0.00 | 0.00 | 86 | 1022.7 |
| 20260901224551 | 62 | 0 | 0.0 | 1.0 | 0.00 | 0.00 | 0.00 | 85 | 1022.7 |
| 20260901223045 | 62 | 0 | 0.0 | 0.0 | 0.00 | 0.00 | 0.00 | 85 | 1022.8 |
| 20260901221555 | 62 | 0 | 0.0 | 0.0 | 0.00 | 0.00 | 0.00 | 84 | 1022.6 |